Volver al catálogo

COSMOS 1748

ActivoMilitarLEO
NORAD 16758·PAYLOAD·🇷🇺 Russia

Lanzado Jun 6, 1986 desde Plesetsk Cosmodrome

Loading…

Próximos Pases (próximas 24 horas)

TLE

ActualizadoSource: Space-Track

Época: Sep 14, 2026, 05:05 UTC

1 16758U 86042A   26257.21195786  .00000004  00000-0  13183-3 0  9991
2 16758  74.0196 175.3465 0010990 316.5098 115.3601 12.50789433838961

Sigue COSMOS 1748 en tiempo real con AllMySat

Download on the App Store